User: anonymous   Login
Location: Mauna Kea VIS
(19.7591°N, 155.4561°W)
Time: 16:35:38
(UTC-10:00)
Language:

Cosmos 1624 Rocket - Orbit

View from above orbital plane
View from above orbital plane
View from above satellite
View from above satellite

Ground track
Ground track

The orbit data is extracted from the following two-line orbital elements,

1 15483U 85006B   14327.16416216  .00000308  00000-0  11504-3 0  3780
2 15483 074.0465 274.6542 0017747 128.6356 332.6745 14.35910973562045
Epoch (UTC): 23 November 2014 03:56:23
Eccentricity: 0.0017747
inclination: 74.0465°
perigee height: 759 km
apogee height: 785 km
right ascension of ascending node: 274.6542°
argument of perigee: 128.6356°
revolutions per day: 14.35910973
mean anomaly at epoch: 332.6745°
orbit number at epoch: 56204

The dashed part of the orbit path shows where the satellite is in the earth's shadow,  

DLR